Regional Weather Roundup
Issued by NWS Albany, NY

Home | Current Version | Previous Version | Graphics & Text | Print | Product List | Glossary Off
Versions: 1 2 3 4 5 6 7 8 9 10 11 12 13 14 15 16 17 18 19 20 21 22 23 24 25 26 27 28 29 30 31 32 33 34 35 36 37 38 39 40 41 42 43 44 45 46 47 48 49

000
ASUS41 KALY 291110
RWRALY

NEW YORK STATE HOURLY WEATHER ROUNDUP
NATIONAL WEATHER SERVICE ALBANY NY
700 AM EDT SAT AUG 29 2015

NOTE: "FAIR" INDICATES FEW OR NO CLOUDS BELOW 12,000 FEET WITH NO
SIGNIFICANT WEATHER AND/OR NO OBSTRUCTIONS TO VISIBILITY.

NYZ032-033-038>043-046>054-057>066-NYZ062>081-291200-
EAST


CITY           SKY/WX    TMP DP  RH WIND       PRES   REMARKS
ALBANY         PTCLDY    55  52  89 CALM      30.21R
GLENS FALLS    PTCLDY    50  48  93 CALM      30.21R FOG
POUGHKEEPSIE   CLEAR     53  51  93 CALM      30.21R
MONTGOMERY     CLEAR     51  49  92 CALM      30.22R
WHITE PLAINS   CLEAR     59  55  87 NW6       30.21R
ISLIP          PTCLDY    62  58  86 CALM      30.19R
NEW YORK CITY  PTCLDY    70  55  59 NW6       30.20R
CENTRAL PARK   CLEAR     67  54  63 CALM      30.23R
$$

NYZ005>009-017-018-044>046-055-056-291200-
CENTRAL


CITY           SKY/WX    TMP DP  RH WIND       PRES   REMARKS
FULTON         MOCLDY    57  54  89 CALM      30.17R
SYRACUSE       MOCLDY    54  54 100 E5        30.17S
ROME           MOCLDY    52  51  97 SE5       30.20S
ELMIRA         FOG       51  51 100 CALM      30.21R VSB 1/4
BINGHAMTON     PTCLDY    53  51  93 S3        30.22R
MONTICELLO     PTCLDY    48  48 100 CALM      30.25S
$$

NYZ026>034-041>043-291200-
NORTH


CITY           SKY/WX    TMP DP  RH WIND       PRES   REMARKS
WATERTOWN      MOCLDY    53  51  93 NE5       30.16R
FORT DRUM      NOT AVBL
MASSENA        MOCLDY    54  51  90 CALM      30.17R
SARANAC LAKE   MOCLDY    44  43  96 CALM      30.20R
PLATTSBURGH    PTCLDY    52  51  97 CALM      30.18R
$$

NYZ001>004-010>016-019>021-291200-
WEST


CITY           SKY/WX    TMP DP  RH WIND       PRES   REMARKS
NIAGARA FALLS  MOCLDY    56  53  90 CALM      30.15S
BUFFALO        MOCLDY    57  54  89 S5        30.15S
DUNKIRK        PTCLDY    55  54  96 S6        30.16R
JAMESTOWN      CLEAR     54  52  94 CALM      30.19R
WELLSVILLE     CLEAR     54  51  90 CALM      30.23R
ROCHESTER      PTCLDY    57  54  89 SW6       30.16R
PENN YAN       CLEAR     59  56  89 SW10      30.19R
$$

             KEY
       WCI = WIND CHILL INDEX
       VSB = VISIBILITY
       HX  = HEAT INDEX
$$


USA.gov is the U.S. government's official web portal to all federal, state and local government web resources and services.